Theta_e
321 318 320 317 316 325 330 331 335 333 329 332 330 330 328 328 329 327 326 324 323 323 323 323 324 324 323 321 322 318 317 316 313 312 311 309 308 308 308 308 308 309 311 311
318 320 320 324 329 332 333 333 333 329 327 329 330 330 330 330 329 327 326 325 324 325 325 325 322 322 322 321 319 318 316 313 312 311 309 308 307 307 306 307 308 310 310 311
319 320 321 326 327 330 330 332 332 331 329 328 331 333 332 331 330 329 327 326 325 326 325 324 321 319 319 318 316 315 314 312 310 308 307 306 306 305 305 305 305 305 307 309
325 325 324 323 325 323 325 329 332 331 331 335 330 335 332 328 329 330 329 327 326 326 324 320 319 319 319 317 316 314 312 309 307 307 306 306 305 304 304 304 305 304 305 305
328 327 326 326 326 323 328 330 331 330 329 330 332 333 332 328 331 329 327 327 327 325 322 319 320 317 316 315 313 311 308 307 306 307 306 305 305 304 304 304 304 304 304 305
327 328 327 325 322 326 329 325 323 317 324 331 330 328 328 330 329 328 327 327 327 324 322 320 319 315 314 311 309 307 306 306 307 307 306 306 305 305 304 304 304 303 304 307
327 327 327 327 326 326 320 318 322 322 326 330 327 327 325 325 327 327 327 325 324 322 322 320 317 314 311 309 307 307 306 307 307 307 306 306 305 305 304 305 305 305 307 306
327 328 326 325 325 324 321 320 322 327 325 329 327 331 327 327 328 327 327 324 323 321 318 315 313 312 310 308 306 306 307 307 307 308 307 306 305 305 305 305 305 307 307 308
327 329 326 323 322 322 323 322 319 325 325 328 328 330 329 325 323 324 324 322 318 316 314 313 312 310 308 307 306 307 307 307 308 307 307 306 305 305 304 305 306 306 306 307
328 326 325 326 322 321 322 319 321 320 330 331 328 327 326 329 324 321 321 320 317 314 312 311 310 308 307 306 306 307 308 308 308 308 307 307 306 305 306 305 306 306 306 307
322 322 324 323 324 322 320 320 319 319 321 326 327 325 320 325 323 322 321 320 315 312 311 310 308 307 306 306 307 307 308 307 308 309 308 308 308 308 307 306 305 305 305 305
324 322 325 325 322 320 319 320 317 322 326 321 320 321 317 321 325 325 321 318 313 312 310 309 308 307 307 306 307 307 307 308 309 310 309 308 308 308 307 307 306 306 306 306
323 318 323 323 321 319 320 318 318 317 317 322 323 321 318 320 318 318 317 314 312 311 310 309 308 307 307 307 308 307 308 309 309 309 309 307 308 310 308 307 306 305 306 306
324 320 320 323 322 320 323 322 321 318 319 323 322 322 320 318 312 311 312 311 311 310 310 309 308 307 307 307 309 308 308 309 309 308 309 308 310 310 309 308 308 307 307 307
320 322 320 319 320 320 320 320 320 322 322 321 323 323 318 316 312 311 311 310 311 310 310 309 309 308 307 308 308 308 309 309 309 308 308 308 309 310 311 309 308 308 307 308
319 323 321 324 323 322 322 320 319 319 318 318 317 319 312 311 312 311 311 311 311 310 310 309 309 307 308 308 308 309 308 309 308 307 308 310 312 311 310 309 308 308 309 307
321 322 323 325 326 325 326 324 319 319 318 317 318 316 313 311 311 311 311 311 311 310 310 309 309 308 308 308 308 309 308 310 308 309 310 311 312 309 308 308 309 308 307 308
326 327 325 329 326 327 325 322 319 319 319 317 317 315 313 312 312 312 312 311 310 310 309 309 308 307 308 308 308 309 309 310 309 309 310 311 310 311 308 308 308 307 307 310
324 322 325 328 329 326 325 323 323 322 319 316 316 314 312 312 312 312 312 311 310 310 308 308 307 308 309 309 310 309 309 310 311 310 309 308 308 310 311 310 309 308 308 309
322 322 327 328 326 328 323 320 320 319 319 316 316 314 312 312 311 311 312 311 310 310 308 308 308 309 309 309 309 308 309 311 310 310 308 309 309 305 306 310 310 311 309 308
323 326 328 326 327 324 320 318 318 315 316 316 315 314 313 311 313 313 312 311 310 310 309 309 308 309 310 310 309 309 309 311 310 309 309 309 310 310 305 305 308 309 309 309
324 324 323 322 322 322 319 316 314 317 317 315 314 314 314 314 314 313 312 311 310 310 310 309 309 308 310 311 310 309 309 311 311 309 309 310 310 311 312 310 304 304 305 308
323 321 322 319 319 320 319 318 317 316 315 314 314 313 313 313 313 313 312 311 311 311 310 309 309 310 311 311 310 309 310 311 310 309 309 309 309 310 311 311 312 308 304 301
320 320 319 319 320 319 319 318 317 316 315 314 313 313 313 313 313 313 312 311 312 311 309 309 309 310 310 310 310 310 310 312 311 310 311 310 310 310 311 312 311 310 310 304
319 320 318 316 319 320 321 320 318 318 319 314 314 313 314 313 313 313 311 312 312 310 309 309 309 309 310 310 310 310 310 312 312 311 310 311 310 310 311 311 310 308 309 308
319 319 318 318 319 318 319 317 317 317 319 319 314 314 316 316 313 314 312 311 312 311 310 310 310 310 310 310 310 310 310 311 312 311 311 310 311 311 312 310 310 309 308 307
Wind_Speed
3 5 3 11 6 5 10 9 11 5 4 7 6 5 4 1 5 6 7 5 5 4 1 2 6 8 8 10 12 12 13 16 18 23 25 24 25 25 19 17 17 18 19 20
6 2 4 11 14 17 16 19 8 5 4 6 3 4 2 2 2 7 6 5 5 4 2 4 6 8 10 7 10 11 14 17 22 24 24 25 25 24 22 19 15 13 13 14
3 4 1 9 9 9 5 7 12 9 8 6 8 2 2 1 5 6 4 3 4 4 4 4 7 9 6 8 10 14 17 22 25 27 24 23 23 22 22 20 19 16 15 16
6 5 7 6 5 4 0 10 14 19 7 5 4 2 3 4 4 7 6 6 6 5 2 4 7 10 8 11 13 17 22 27 26 21 24 25 23 23 23 22 21 18 15 15
2 3 5 6 2 4 3 13 13 9 5 6 2 1 3 4 4 4 7 7 8 4 3 6 9 7 7 10 14 20 24 19 19 23 23 20 19 20 20 19 18 16 13 12
2 2 3 3 6 14 19 14 7 5 3 2 3 3 2 3 4 1 5 7 7 5 6 8 8 5 8 13 19 21 16 16 20 24 21 19 19 21 22 20 19 17 14 14
6 4 5 2 10 11 7 6 3 3 2 3 2 3 5 4 4 5 12 12 7 7 8 8 5 6 12 18 20 14 14 16 19 22 22 18 19 19 21 21 19 16 14 19
3 5 7 6 1 6 2 5 5 4 3 3 2 3 3 1 4 4 9 9 8 6 5 3 3 9 15 18 14 10 16 17 18 21 22 19 19 17 18 18 18 17 16 15
3 2 3 6 3 1 2 4 3 7 3 3 2 1 2 5 4 8 11 9 8 8 5 1 5 11 15 14 11 10 15 15 19 18 20 19 18 18 16 16 11 13 12 13
1 3 3 5 5 10 6 4 2 3 4 2 2 3 4 4 5 6 11 13 12 9 5 1 7 12 12 9 9 12 14 16 17 17 17 20 18 17 16 12 8 9 9 10
2 3 5 3 6 3 5 4 6 5 3 4 2 4 4 8 10 10 17 14 13 9 3 3 9 11 10 8 9 11 13 16 15 16 16 16 17 17 15 13 10 9 10 9
3 4 2 2 5 3 4 3 3 4 1 2 3 4 6 8 18 20 12 12 12 8 3 4 8 9 8 7 8 11 12 14 13 16 16 16 14 17 16 13 9 10 9 10
2 4 3 6 6 6 6 4 3 5 3 2 3 4 6 5 7 2 11 13 11 7 1 5 7 8 7 6 8 10 11 13 14 15 13 16 17 17 17 15 12 9 10 10
5 3 3 5 3 2 6 5 4 5 4 2 2 4 3 3 4 7 11 12 9 5 2 4 7 7 5 5 7 10 10 12 12 13 11 13 16 17 17 15 16 14 13 14
5 5 4 8 10 14 9 8 9 6 2 3 2 1 4 4 5 8 10 9 6 4 4 5 6 7 4 6 8 8 9 11 11 10 11 14 15 16 16 12 13 14 13 12
6 2 2 7 9 14 12 9 7 6 4 4 5 2 3 2 6 10 10 6 4 4 6 6 6 6 3 6 9 9 9 8 10 11 13 14 16 15 13 12 13 13 12 15
4 3 4 2 4 2 6 5 3 3 4 3 4 3 2 1 3 9 7 3 4 6 6 6 7 4 4 7 9 9 6 6 8 10 10 13 15 17 16 12 11 11 12 15
4 5 2 1 5 3 1 2 4 5 4 5 3 2 4 1 1 4 3 2 5 6 6 6 6 3 5 7 7 7 3 5 5 7 9 12 10 14 14 14 14 12 11 13
9 4 3 3 3 3 2 5 4 0 3 5 3 3 1 2 0 6 6 4 4 4 5 5 3 3 4 6 6 3 1 3 4 5 8 10 10 10 12 10 10 10 9 8
7 6 4 2 3 3 3 9 12 8 3 7 6 5 4 3 3 5 3 4 3 4 4 3 2 4 4 6 5 1 1 2 4 5 8 11 12 12 9 8 9 7 7 7
5 4 3 2 3 2 5 15 2 6 5 6 5 6 6 6 5 10 3 4 4 5 5 5 5 7 6 6 4 2 2 2 1 3 5 8 12 14 14 9 8 8 8 6
3 2 3 2 4 3 17 10 6 3 4 6 7 6 6 9 9 8 6 6 6 6 7 7 7 7 7 8 6 3 3 1 1 1 3 8 9 11 12 11 12 10 9 8
4 2 2 2 4 1 4 5 5 3 6 7 7 8 6 7 8 9 9 9 9 9 9 8 8 7 8 9 7 6 3 2 1 1 3 5 11 12 14 15 8 9 12 12
6 7 3 3 3 3 4 5 4 6 9 8 7 7 7 9 10 12 11 10 10 10 9 9 9 8 7 7 6 7 6 3 3 5 4 5 8 13 14 16 9 8 9 13
3 7 3 2 4 6 13 16 12 4 12 13 10 8 8 8 10 13 12 10 10 10 10 10 10 10 9 7 7 8 8 5 4 4 5 7 9 12 15 14 10 8 7 8
10 4 2 2 13 6 12 15 7 14 19 16 16 13 11 12 12 11 12 11 12 11 11 12 12 13 10 10 9 9 10 8 8 6 6 8 8 11 13 14 11 8 7 6
Wind_Direction
43 78 186 196 195 95 98 89 113 125 86 96 86 104 116 239 147 146 158 169 175 189 204 313 332 324 330 327 309 315 318 326 328 333 338 339 340 338 329 320 313 303 291 282
24 1 289 88 111 107 107 118 115 44 66 89 106 99 204 198 164 195 179 198 207 222 310 326 340 335 326 312 304 315 325 328 333 338 338 337 339 339 336 330 317 308 301 293
129 281 123 120 131 123 170 128 162 142 113 66 142 104 122 319 168 189 194 243 234 260 298 323 317 335 320 315 328 329 332 336 339 337 338 339 337 336 331 325 325 321 300 293
80 350 95 75 79 91 268 137 140 140 138 157 180 197 211 180 256 198 209 236 233 245 269 285 324 333 322 328 329 332 335 337 340 346 342 339 343 345 344 336 331 323 311 303
136 73 73 74 266 129 113 125 129 112 85 107 214 231 137 116 252 243 199 221 217 224 253 297 320 332 335 329 333 336 340 354 353 348 344 346 347 349 347 343 333 326 325 315
83 61 80 177 50 109 122 93 48 40 75 71 193 159 253 182 218 130 185 203 207 230 246 270 298 321 341 343 341 348 359 354 351 352 349 345 347 353 356 353 357 0 358 348
6 356 330 76 94 130 80 117 77 312 6 215 182 105 243 233 239 195 186 204 202 233 248 259 273 330 342 341 348 355 355 348 354 357 359 356 352 350 356 1 10 22 29 13
93 344 357 345 105 177 173 157 155 241 196 204 21 208 246 1 143 158 189 202 215 228 204 201 335 338 336 344 354 3 349 350 353 355 1 4 4 3 3 8 14 33 35 29
105 144 266 51 32 76 163 52 141 101 43 90 228 180 341 90 101 157 172 188 189 181 179 197 334 339 340 347 354 351 350 354 356 0 7 8 9 8 10 20 41 28 31 27
125 106 2 322 30 33 92 147 41 25 140 164 263 288 234 196 212 209 200 196 189 183 174 341 347 343 343 345 349 352 353 351 359 1 6 16 15 11 12 18 14 16 9 10
51 80 309 49 26 320 356 20 57 111 97 151 166 265 220 203 201 211 215 201 185 176 169 353 347 348 351 339 338 347 353 355 356 6 7 5 10 13 8 9 10 11 11 12
12 124 87 127 312 64 70 58 91 112 199 57 123 282 336 235 217 220 205 189 180 176 172 338 339 346 343 341 340 344 357 359 356 0 3 8 16 17 13 17 15 20 20 19
144 16 59 358 355 9 51 14 92 92 82 44 96 284 357 57 73 143 168 169 173 170 210 325 341 335 339 350 352 354 2 7 -0 10 22 34 36 29 24 30 32 25 21 16
86 62 150 186 193 145 66 17 33 84 68 178 227 293 315 23 80 123 155 160 166 184 256 323 326 332 335 341 348 347 356 360 3 13 21 34 33 31 27 42 39 38 35 28
82 48 44 48 79 78 71 55 43 60 150 96 287 292 338 320 173 171 159 163 180 226 281 310 313 333 326 337 343 347 355 360 14 26 42 26 15 14 11 36 36 32 40 34
23 121 30 52 77 74 61 40 45 33 22 56 18 345 296 45 142 159 171 180 225 279 279 307 318 324 323 339 349 357 1 25 37 44 30 21 23 21 21 33 41 45 45 54
64 96 30 202 326 328 34 1 35 59 29 350 32 307 191 52 175 169 181 226 311 304 303 317 315 310 318 330 344 354 18 37 37 38 32 23 27 27 33 40 45 52 60 71
126 105 152 107 347 26 249 2 88 100 46 18 21 326 337 282 172 185 210 267 319 314 321 319 312 296 323 325 338 349 19 23 22 23 19 25 36 23 32 48 57 60 74 53
54 102 80 106 78 297 50 357 331 51 24 352 340 329 18 119 105 274 244 260 304 320 330 324 309 316 329 336 345 335 352 1 9 26 17 24 17 15 19 22 42 49 44 36
42 84 85 357 85 50 303 322 340 153 19 352 336 282 221 196 4 289 290 250 304 305 310 304 314 316 323 329 328 297 270 8 40 36 26 19 17 23 2 11 11 12 17 27
354 22 74 47 89 25 317 341 27 58 258 334 331 314 237 217 261 313 294 280 277 289 285 284 293 300 309 313 300 251 244 346 29 31 12 9 14 19 26 2 347 346 342 354
38 30 23 41 57 0 353 14 77 259 309 316 330 319 291 286 290 288 277 275 273 283 287 282 293 289 298 300 272 235 225 319 252 329 332 1 1 9 9 8 10 354 332 315
32 115 145 132 195 222 20 52 48 6 330 330 333 348 317 297 299 285 282 285 278 276 278 268 285 286 298 292 262 225 222 264 230 252 315 352 341 350 356 355 337 345 353 347
346 29 71 73 333 348 337 325 319 324 315 318 331 349 357 333 312 307 290 286 280 279 266 260 275 279 298 289 246 227 219 265 256 285 300 303 320 333 352 355 348 337 334 351
324 349 352 355 355 337 13 344 306 310 308 304 310 334 332 326 326 315 299 289 286 272 255 258 268 276 288 267 241 225 228 258 270 281 294 308 319 319 340 345 346 335 329 332
4 339 49 2 9 352 12 4 340 301 325 316 301 308 319 318 314 305 318 298 281 278 267 258 261 273 275 255 235 230 235 259 262 267 283 307 312 323 328 317 330 315 315 318